User: anonymous   Login
Location: Libas
(9.8833°N, 125.9833°E)
Time: 02:33:25
(UTC+00:00)
Language:

Cosmos 2180 Rocket - Orbit

View from above orbital plane
View from above orbital plane
View from above satellite
View from above satellite

Ground track
Ground track

The orbit data is extracted from the following two-line orbital elements,

1 21876U 92008B   21018.32622601 -.00000021  00000-0 -36619-4 0  9991
2 21876  82.9253 222.7042 0034355 335.8671 196.9248 13.75668743451411
Epoch (UTC): 18 January 2021 07:49:45
Eccentricity: 0.0034355
inclination: 82.9253°
perigee height: 954 km
apogee height: 1004 km
right ascension of ascending node: 222.7042°
argument of perigee: 335.8671°
revolutions per day: 13.75668743
mean anomaly at epoch: 196.9248°
orbit number at epoch: 45141

The dashed part of the orbit path shows where the satellite is in the earth's shadow,  

DLR